Aberdeen, SD

1:19 AM CDT on March 25, 2017 (GMT -0500)
Aberdeen Regional

Weather History for KABR - March, 2013

Change the Weather History Date:

Wednesday, March 6, 2013

  Actual Average Record
Temperature  
Mean Temperature 12 °F 25 °F  
Max Temperature 20 °F 35 °F 69 °F (2000)
Min Temperature 4 °F 16 °F -16 °F (1899)
Degree Days  
Heating Degree Days 53 40  
Month to date heating degree days 276 245  
Since 1 July heating degree days 6690 6708  
Cooling Degree Days 0 0  
Month to date cooling degree days 0 0  
Year to date cooling degree days 0 0  
Moisture  
Dew Point 7 °F    
Average Humidity 80    
Maximum Humidity 86    
Minimum Humidity 73    
Precipitation  
Precipitation T in 0.03 in 0.60 in (1896)
Month to date precipitation 0.15 0.17  
Year to date precipitation 1.99 1.19  
Snow  
Snow T in 0.30 in 4.00 in (1915)
Month to date snowfall 0.6 1.6  
Since 1 July snowfall 39.7 29.4  
Snow Depth 6.00 in    
Sea Level Pressure  
Sea Level Pressure 30.40 in    
Wind  
Wind Speed 6 mph (East)    
Max Wind Speed 14 mph    
Max Gust Speed 16 mph    
Visibility 8 miles    
Events Snow    
T = Trace of Precipitation, MM = Missing Value Source: NWS Daily Summary

Daily Weather History Graph

Daily Weather History Graph

Search for Another Location

Airport or City:

Trip Planner

Search our weather history database for the weather conditions in past years. The results will help you decide how hot, cold, wet, or windy it might be!

Date:

Astronomy

Mar. 06, 2013 Rise Set
Actual Time 7:02 AM CST 6:27 PM CST
Civil Twilight 6:32 AM CST 6:57 PM CST
Nautical Twilight 5:58 AM CST 7:31 PM CST
Astronomical Twilight 5:24 AM CST 8:06 PM CST
Moon 3:25 AM CST (3/6) 12:59 PM CST (3/6)
Length of Visible Light 12h 24m
Length of Day
11h 25m
Waning Crescent, 29% of the Moon is Illuminated
Mar 6
Waning Crescent
Mar 11
New
Mar 19
First Quarter
Mar 27
Full
Apr 2
Last Quarter

Hourly Weather History & Observations

Time (CST) Temp. Windchill Dew Point Humidity Pressure Visibility Wind Dir Wind Speed Gust Speed Precip Events Conditions
12:53 AM 12.0 °F 1.5 °F 7.0 °F 80% 30.49 in 9.0 mi NNW 6.9 mph - N/A   Overcast
1:53 AM 10.9 °F 0.2 °F 6.1 °F 81% 30.49 in 9.0 mi NNW 6.9 mph - N/A   Overcast
2:53 AM 8.1 °F 1.4 °F 3.9 °F 83% 30.49 in 10.0 mi NNW 3.5 mph - N/A   Overcast
3:20 AM 8.6 °F 2.0 °F 3.2 °F 79% 30.41 in 9.0 mi North 3.5 mph - N/A   Overcast
3:53 AM 7.0 °F - 1.9 °F 80% 30.48 in 9.0 mi Calm Calm - N/A   Overcast
4:28 AM 5.0 °F - 1.4 °F 85% 30.40 in 10.0 mi Calm Calm - N/A   Scattered Clouds
4:53 AM 5.0 °F -2.1 °F -0.0 °F 80% 30.48 in 10.0 mi North 3.5 mph - N/A   Scattered Clouds
5:00 AM 3.2 °F - -0.4 °F 85% 30.40 in 9.0 mi Calm Calm - N/A   Mostly Cloudy
5:53 AM 3.9 °F - -0.0 °F 84% 30.50 in 10.0 mi Calm Calm - N/A   Overcast
6:53 AM 5.0 °F - -0.0 °F 80% 30.50 in 6.0 mi Calm Calm - N/A   Haze
7:53 AM 6.1 °F - 1.0 °F 80% 30.49 in 2.5 mi Calm Calm - N/A   Haze
8:53 AM 10.0 °F - 6.1 °F 84% 30.50 in 2.0 mi Calm Calm - 0.00 in Snow Light Snow
9:17 AM 12.2 °F - 6.8 °F 79% 30.41 in 1.8 mi Calm Calm - 0.00 in Snow Light Snow
9:46 AM 12.2 °F - 8.6 °F 85% 30.41 in 2.0 mi Calm Calm - 0.00 in Snow Light Snow
9:53 AM 12.9 °F 6.9 °F 9.0 °F 84% 30.49 in 2.5 mi ENE 3.5 mph - 0.00 in Snow Light Snow
10:10 AM 14.0 °F - 8.6 °F 79% 30.40 in 3.0 mi Calm Calm - 0.00 in   Haze
10:53 AM 15.1 °F 6.4 °F 9.0 °F 77% 30.48 in 1.8 mi ESE 5.8 mph - 0.00 in Snow Light Snow
11:02 AM 15.8 °F 6.1 °F 8.6 °F 73% 30.39 in 3.0 mi ESE 6.9 mph - 0.00 in Snow Light Snow
11:15 AM 15.8 °F 5.1 °F 10.4 °F 79% 30.39 in 2.5 mi ESE 8.1 mph - 0.00 in Snow Light Snow
11:33 AM 15.8 °F 6.1 °F 8.6 °F 73% 30.39 in 5.0 mi ESE 6.9 mph - 0.00 in Snow Light Snow
11:42 AM 15.8 °F 4.2 °F 8.6 °F 73% 30.39 in 10.0 mi ESE 9.2 mph - 0.00 in   Mostly Cloudy
11:53 AM 15.1 °F 3.3 °F 9.0 °F 77% 30.46 in 10.0 mi SE 9.2 mph - 0.00 in   Overcast
12:53 PM 16.0 °F 3.6 °F 10.0 °F 77% 30.44 in 10.0 mi SE 10.4 mph - N/A   Mostly Cloudy
1:53 PM 17.1 °F 5.8 °F 12.0 °F 81% 30.41 in 8.0 mi SSE 9.2 mph - N/A   Overcast
2:37 PM 17.6 °F 6.4 °F 12.2 °F 79% 30.30 in 10.0 mi ESE 9.2 mph - N/A   Scattered Clouds
2:53 PM 18.0 °F 6.9 °F 12.0 °F 78% 30.38 in 10.0 mi SE 9.2 mph - N/A   Clear
3:53 PM 19.0 °F 8.2 °F 12.9 °F 77% 30.36 in 10.0 mi SE 9.2 mph - N/A   Clear
4:53 PM 19.9 °F 7.9 °F 12.9 °F 74% 30.33 in 10.0 mi ESE 11.5 mph - N/A   Clear
5:53 PM 19.0 °F 9.0 °F 12.9 °F 77% 30.32 in 10.0 mi East 8.1 mph - N/A   Clear
6:53 PM 17.1 °F 6.6 °F 12.0 °F 81% 30.30 in 10.0 mi East 8.1 mph - N/A   Clear
7:53 PM 12.9 °F 5.2 °F 9.0 °F 84% 30.32 in 10.0 mi East 4.6 mph - N/A   Clear
8:53 PM 12.9 °F 3.8 °F 9.0 °F 84% 30.33 in 10.0 mi NE 5.8 mph - N/A   Clear
9:53 PM 15.1 °F 3.3 °F 10.0 °F 80% 30.32 in 10.0 mi East 9.2 mph - N/A   Clear
10:53 PM 15.1 °F 2.5 °F 10.0 °F 80% 30.28 in 10.0 mi East 10.4 mph - N/A   Clear
11:53 PM 12.0 °F 2.7 °F 7.0 °F 80% 30.28 in 10.0 mi East 5.8 mph - N/A   Clear